W3EJE-13 Weather Reports


Display with metric or nautical units.
time (UTC)temp
F
wind
direction
speed
MPH
gust
MPH
rain 1hr
in
rain 24hr
in
rain mn
in
humidity
%
barometer
mb
20260905085554 66 251 0.0 0.0 0.00 0.00 0.00 99 1016.0
20260905085050 66 254 0.0 0.0 0.00 0.00 0.00 99 1015.7
20260905084550 65 259 0.0 0.0 0.00 0.00 0.00 99 1016.0
20260905084045 66 259 0.0 0.0 0.00 0.00 0.00 99 1016.0
20260905083539 66 259 0.0 0.0 0.00 0.00 0.00 99 1015.7
20260905083036 66 262 0.0 0.0 0.00 0.00 0.00 99 1015.5
20260905082531 66 261 0.0 0.0 0.00 0.00 0.00 99 1015.6
20260905082027 66 262 0.0 0.0 0.00 0.00 0.00 99 1015.9
20260905081526 66 263 0.0 0.0 0.00 0.00 0.00 99 1015.9
20260905081021 66 253 0.0 0.0 0.00 0.00 0.00 99 1015.9
20260905080521 66 245 0.0 0.0 0.00 0.00 0.00 99 1016.0
20260905080017 66 261 0.0 0.0 0.00 0.00 0.00 99 1016.0
20260905075509 66 258 0.0 0.0 0.00 0.00 0.00 99 1016.4
20260905075008 66 241 0.0 0.0 0.00 0.00 0.00 99 1016.2
20260905074503 66 263 0.0 0.0 0.00 0.00 0.00 99 1016.6
20260905073953 66 260 0.0 0.0 0.00 0.00 0.00 99 1016.6
20260905073448 65 257 0.0 0.0 0.00 0.00 0.00 99 1016.7
20260905072944 65 264 0.0 0.0 0.00 0.00 0.00 99 1016.5
20260905072438 65 265 0.0 0.0 0.00 0.00 0.00 99 1016.5
20260905071934 65 264 0.0 0.0 0.00 0.00 0.00 99 1016.5
20260905071431 66 263 0.0 0.0 0.00 0.00 0.00 99 1016.4
20260905070930 66 260 0.0 0.0 0.00 0.00 0.00 99 1016.5
20260905070427 66 262 0.0 0.0 0.00 0.00 0.00 99 1016.8
20260905065926 65 257 0.0 0.0 0.00 0.00 0.00 99 1017.1
20260905065424 65 258 0.0 0.0 0.00 0.00 0.00 99 1016.9
20260905064920 65 262 0.0 0.0 0.00 0.00 0.00 99 1017.0
20260905064415 66 259 0.0 0.0 0.00 0.00 0.00 99 1017.3
20260905063909 66 257 0.0 0.0 0.00 0.00 0.00 99 1017.2
20260905063404 65 257 0.0 0.0 0.00 0.00 0.00 99 1017.1
20260905062900 65 262 0.0 0.0 0.00 0.00 0.00 99 1017.4
20260905062354 65 262 0.0 0.0 0.00 0.00 0.00 99 1017.3
20260905061849 66 260 0.0 0.0 0.00 0.00 0.00 99 1017.8
20260905061349 66 259 0.0 0.0 0.00 0.00 0.00 99 1017.6
20260905060843 66 254 0.0 0.0 0.00 0.00 0.00 99 1017.6
20260905060340 65 262 0.0 0.0 0.00 0.00 0.00 99 1017.4
20260905055839 66 262 0.0 0.0 0.00 0.00 0.00 99 1017.7
20260905055334 66 259 0.0 0.0 0.00 0.00 0.00 99 1017.9
20260905054833 66 257 0.0 0.0 0.00 0.00 0.00 99 1017.6
20260905054330 66 260 0.0 0.0 0.00 0.00 0.00 99 1017.6
20260905053830 66 267 0.0 0.0 0.00 0.00 0.00 99 1017.4
20260905053324 66 257 0.0 0.0 0.00 0.00 0.00 99 1017.7
20260905052820 66 256 0.0 0.0 0.00 0.00 0.00 99 1018.0
20260905052314 66 258 0.0 0.0 0.00 0.00 0.00 99 1017.9
20260905051814 66 257 0.0 0.0 0.00 0.00 0.00 99 1017.9
20260905051310 66 264 0.0 0.0 0.00 0.00 0.00 99 1017.9
20260905050807 66 263 0.0 0.0 0.00 0.00 0.00 99 1018.0
20260905050303 66 263 0.0 0.0 0.00 0.00 0.00 99 1018.1
20260905045803 66 264 0.0 0.0 0.00 0.00 0.00 99 1018.1
20260905045258 66 265 0.0 0.0 0.00 0.00 0.00 99 1018.0
20260905044753 67 258 0.0 0.0 0.00 0.00 0.00 99 1018.2
20260905044248 67 258 0.0 0.0 0.00 0.00 0.00 99 1018.3
20260905043747 67 259 0.0 0.0 0.00 0.00 0.00 99 1018.2
20260905043242 67 264 0.0 0.0 0.00 0.00 0.00 99 1018.3
20260905042737 67 258 0.0 0.0 0.00 0.00 0.00 99 1018.3
20260905042236 67 258 0.0 0.0 0.00 0.00 0.00 99 1018.4
20260905041731 67 259 0.0 0.0 0.00 0.00 0.00 99 1018.3
20260905041227 68 258 0.0 0.0 0.00 0.00 0.00 99 1018.4
20260905040722 67 262 0.0 0.0 0.00 0.00 0.00 99 1018.3
20260905040221 67 259 0.0 0.0 0.00 0.00 0.00 99 1018.4
20260905035720 67 265 0.0 0.0 0.00 0.01 0.01 99 1018.6
20260905035217 67 265 0.0 0.0 0.00 0.01 0.01 99 1018.3
20260905034713 68 273 0.0 0.0 0.00 0.01 0.01 99 1018.4
20260905034213 68 264 0.0 0.0 0.00 0.01 0.01 99 1018.5
20260905033711 68 260 0.0 0.0 0.00 0.01 0.01 99 1018.3
20260905033207 68 259 0.0 0.0 0.00 0.01 0.01 99 1018.2
20260905032707 68 260 0.0 0.0 0.00 0.01 0.01 99 1018.1
20260905032202 68 263 0.0 0.0 0.00 0.01 0.01 99 1018.3
20260905031658 68 266 0.0 0.0 0.00 0.01 0.01 99 1018.2
20260905031152 68 256 0.0 0.0 0.00 0.01 0.01 99 1018.1
20260905030648 68 266 0.0 0.0 0.00 0.01 0.01 99 1018.2
20260905030143 68 262 0.0 0.0 0.00 0.01 0.01 99 1018.1
20260905025638 68 262 0.0 0.0 0.00 0.01 0.01 99 1018.0
20260905025134 68 260 0.0 0.0 0.00 0.01 0.01 99 1017.8
20260905024629 68 264 0.0 0.0 0.00 0.01 0.01 99 1017.6
20260905024125 68 262 0.0 0.0 0.00 0.01 0.01 99 1018.0
20260905023620 68 258 0.0 0.0 0.00 0.01 0.01 99 1017.9
20260905023114 68 262 0.0 0.0 0.00 0.01 0.01 99 1017.8
20260905022613 68 259 0.0 0.0 0.00 0.01 0.01 99 1018.0
20260905022109 68 286 0.0 0.0 0.00 0.01 0.01 99 1017.8
20260905021608 68 257 0.0 0.0 0.00 0.01 0.01 99 1017.7
20260905021104 68 258 0.0 0.0 0.00 0.01 0.01 99 1018.1
20260905020603 69 271 0.0 0.0 0.00 0.01 0.01 99 1017.9
20260905020059 69 270 0.0 0.0 0.00 0.01 0.01 99 1018.0
20260905015557 68 259 0.0 0.0 0.00 0.01 0.01 99 1018.0
20260905015052 68 268 0.0 0.0 0.00 0.01 0.01 99 1017.9
20260905014546 68 262 0.0 0.0 0.00 0.01 0.01 99 1018.2
20260905014042 69 266 0.0 0.0 0.00 0.01 0.01 99 1018.1
20260905013538 69 261 0.0 0.0 0.00 0.01 0.01 99 1018.0
20260905013033 69 262 0.0 0.0 0.00 0.01 0.01 99 1018.2
20260905012527 69 260 0.0 0.0 0.00 0.01 0.01 99 1018.0
20260905012025 69 263 0.0 0.0 0.00 0.01 0.01 99 1018.0
20260905011520 69 265 0.0 0.0 0.00 0.01 0.01 99 1017.7
20260905011016 69 263 0.0 0.0 0.00 0.01 0.01 99 1018.0
20260905010515 69 263 0.0 0.0 0.00 0.01 0.01 99 1017.7
20260905010012 69 260 0.0 0.0 0.00 0.01 0.01 99 1017.8
20260905005507 69 261 0.0 0.0 0.00 0.01 0.01 99 1017.6
20260905005003 69 263 0.0 0.0 0.00 0.01 0.01 99 1017.7
20260905004457 69 268 0.0 0.0 0.00 0.01 0.01 99 1017.6
20260905003952 70 257 0.0 0.0 0.00 0.01 0.01 99 1017.3
20260905003448 70 265 0.0 0.0 0.00 0.01 0.01 99 1017.3
20260905002943 70 251 0.0 0.0 0.00 0.01 0.01 99 1017.6
20260905002438 70 251 0.0 0.0 0.00 0.01 0.01 99 1017.6
20260905001937 70 258 0.0 0.0 0.00 0.01 0.01 99 1017.3
20260905001433 70 261 0.0 0.0 0.00 0.01 0.01 99 1017.3
20260905000927 70 259 0.0 0.0 0.00 0.01 0.01 99 1017.1
20260905000424 71 267 0.0 0.0 0.00 0.01 0.01 99 1017.2
20260904235918 71 255 0.0 0.0 0.00 0.01 0.01 99 1017.4
20260904235414 71 250 0.0 0.0 0.00 0.01 0.01 99 1017.2
20260904234908 71 262 0.0 0.0 0.00 0.01 0.01 99 1017.6
20260904234403 72 262 0.0 0.0 0.00 0.01 0.01 99 1017.2
20260904233858 72 264 0.0 0.0 0.00 0.01 0.01 99 1017.2
20260904233354 73 264 0.0 0.0 0.00 0.01 0.01 98 1017.2
20260904232850 73 266 0.0 0.0 0.00 0.01 0.01 98 1017.2
20260904232347 73 265 0.0 0.0 0.00 0.01 0.01 97 1017.1
20260904231843 73 273 0.0 0.0 0.00 0.01 0.01 97 1017.0
20260904231342 74 341 0.0 0.0 0.00 0.01 0.01 97 1017.1
20260904230838 74 270 3.0 3.0 0.00 0.01 0.01 95 1017.2
20260904230337 75 267 2.0 2.0 0.00 0.01 0.01 94 1017.0
20260904225832 75 266 3.0 3.0 0.00 0.01 0.01 94 1016.9
20260904225330 75 264 2.0 2.0 0.00 0.01 0.01 94 1017.2
20260904224830 75 274 3.0 3.0 0.00 0.01 0.01 94 1016.9
20260904224326 75 268 1.0 1.0 0.00 0.01 0.01 92 1017.1
20260904223825 75 318 2.0 2.0 0.00 0.01 0.01 92 1017.2
20260904223319 75 272 2.0 2.0 0.00 0.01 0.01 92 1017.2
20260904222816 75 275 1.0 1.0 0.00 0.01 0.01 92 1017.3
20260904222316 75 269 1.0 1.0 0.00 0.01 0.01 93 1017.6
20260904221810 75 283 2.0 2.0 0.00 0.01 0.01 94 1017.8
20260904221310 75 267 2.0 2.0 0.00 0.01 0.01 93 1018.1
20260904220806 75 267 1.0 2.0 0.00 0.01 0.01 93 1017.7
20260904220305 75 264 0.0 0.0 0.00 0.01 0.01 93 1018.0
20260904215800 75 265 1.0 2.0 0.00 0.01 0.01 94 1017.8
20260904215255 75 268 1.0 2.0 0.00 0.01 0.01 93 1017.9
20260904214751 76 273 2.0 2.0 0.00 0.01 0.01 93 1018.1
20260904214247 76 267 4.0 5.0 0.00 0.01 0.01 93 1018.0
20260904213745 76 270 3.0 3.0 0.00 0.01 0.01 92 1018.2
20260904213241 76 266 1.0 1.0 0.00 0.01 0.01 91 1018.0
20260904212737 76 296 6.0 7.0 0.00 0.01 0.01 91 1017.9
20260904212236 76 304 3.0 3.0 0.00 0.01 0.01 91 1017.9
20260904211731 76 273 3.0 3.0 0.00 0.01 0.01 91 1018.1
20260904211226 76 281 4.0 5.0 0.00 0.01 0.01 91 1018.1
20260904210721 76 322 4.0 6.0 0.00 0.01 0.01 90 1017.9
20260904210216 76 264 1.0 1.0 0.00 0.01 0.01 91 1018.0
20260904205711 76 290 4.0 5.0 0.00 0.01 0.01 91 1018.3
20260904205202 76 274 3.0 5.0 0.00 0.01 0.01 92 1018.2
20260904204658 76 287 3.0 3.0 0.00 0.01 0.01 92 1018.3
20260904204154 77 268 3.0 3.0 0.00 0.01 0.01 92 1018.1
20260904203649 77 268 2.0 2.0 0.00 0.01 0.01 91 1018.2
20260904203146 77 282 5.0 7.0 0.00 0.01 0.01 91 1018.4
20260904202641 77 284 4.0 5.0 0.00 0.01 0.01 91 1018.1
20260904202138 77 29 6.0 7.0 0.00 0.01 0.01 90 1018.2
20260904201632 77 275 4.0 5.0 0.00 0.01 0.01 90 1017.9
20260904201127 77 320 5.0 6.0 0.00 0.01 0.01 90 1017.8
20260904200627 77 284 5.0 5.0 0.00 0.01 0.01 91 1017.7
20260904200122 77 286 3.0 3.0 0.00 0.01 0.01 92 1017.9
20260904195620 77 262 1.0 1.0 0.00 0.01 0.01 92 1017.9
20260904195114 77 274 3.0 3.0 0.00 0.01 0.01 92 1018.0
20260904194614 77 4 5.0 5.0 0.00 0.01 0.01 91 1018.0
20260904194109 77 324 5.0 7.0 0.00 0.01 0.01 91 1018.2
20260904193603 77 262 5.0 6.0 0.00 0.01 0.01 91 1018.1
20260904193100 77 299 9.0 10.0 0.00 0.01 0.01 91 1018.2
20260904192600 77 350 4.0 6.0 0.00 0.01 0.01 91 1018.4
20260904192055 77 313 5.0 6.0 0.00 0.01 0.01 91 1018.2
20260904191552 77 322 6.0 8.0 0.00 0.01 0.01 90 1018.2
20260904191048 77 269 5.0 5.0 0.00 0.01 0.01 92 1018.4
20260904190543 77 2 7.0 8.0 0.00 0.01 0.01 90 1018.7
20260904190040 77 309 8.0 9.0 0.00 0.01 0.01 91 1018.5
20260904185536 77 323 6.0 7.0 0.00 0.01 0.01 92 1018.7
20260904185030 77 295 5.0 7.0 0.00 0.01 0.01 94 1018.5
20260904184525 77 278 4.0 5.0 0.00 0.01 0.01 95 1018.8
20260904184020 76 273 4.0 6.0 0.00 0.01 0.01 96 1018.6
20260904183515 76 285 3.0 3.0 0.00 0.01 0.01 96 1018.7
20260904183010 76 271 0.0 0.0 0.00 0.01 0.01 96 1018.6
20260904182506 75 266 1.0 2.0 0.00 0.01 0.01 96 1018.6
20260904182005 75 269 0.0 0.0 0.00 0.01 0.01 97 1018.6
20260904181501 75 261 0.0 0.0 0.00 0.01 0.01 96 1018.9
20260904180956 75 273 0.0 0.0 0.00 0.01 0.01 96 1019.5
20260904180450 75 276 3.0 3.0 0.00 0.01 0.01 95 1019.1
20260904175950 75 276 2.0 2.0 0.00 0.01 0.01 95 1018.9
20260904175444 75 270 1.0 2.0 0.00 0.01 0.01 94 1019.8
20260904174944 76 328 6.0 7.0 0.00 0.01 0.01 93 1019.2
20260904174439 76 340 7.0 8.0 0.00 0.01 0.01 92 1019.7
20260904173936 77 293 3.0 3.0 0.00 0.01 0.01 92 1019.2
20260904173436 77 324 6.0 8.0 0.00 0.01 0.01 91 1019.2
20260904172931 78 307 4.0 5.0 0.00 0.01 0.01 89 1019.4
20260904172426 79 284 5.0 5.0 0.00 0.01 0.01 88 1019.5
20260904171921 79 286 5.0 6.0 0.00 0.01 0.01 87 1019.4
20260904171416 80 277 4.0 5.0 0.00 0.01 0.01 87 1018.9
20260904170912 80 329 6.0 7.0 0.00 0.01 0.01 86 1019.2
20260904170407 80 303 5.0 6.0 0.00 0.01 0.01 85 1019.1
20260904165902 80 323 7.0 8.0 0.00 0.01 0.01 85 1019.0
20260904165402 81 15 6.0 8.0 0.00 0.01 0.01 85 1019.1
20260904164901 81 262 3.0 3.0 0.00 0.01 0.01 84 1019.4
20260904164401 81 283 5.0 6.0 0.00 0.01 0.01 85 1019.4
20260904163858 80 292 7.0 9.0 0.00 0.01 0.01 86 1019.6
20260904163357 79 275 3.0 6.0 0.00 0.01 0.01 88 1019.4
20260904162856 79 304 7.0 8.0 0.00 0.01 0.01 87 1019.4
20260904162352 79 6 10.0 11.0 0.00 0.01 0.01 87 1019.2
20260904161847 79 275 6.0 8.0 0.00 0.01 0.01 86 1019.5
20260904161342 79 314 6.0 8.0 0.00 0.01 0.01 85 1019.6
20260904160838 79 247 3.0 3.0 0.00 0.01 0.01 88 1019.7
20260904160332 79 292 6.0 7.0 0.00 0.01 0.01 87 1019.8
20260904155828 78 265 5.0 6.0 0.00 0.01 0.01 87 1019.6
20260904155322 79 323 8.0 11.0 0.00 0.01 0.01 88 1020.0
20260904154821 78 273 4.0 7.0 0.00 0.01 0.01 88 1019.7
20260904154315 78 325 7.0 8.0 0.00 0.01 0.01 88 1019.6
20260904153812 78 303 5.0 6.0 0.00 0.01 0.01 88 1019.6
20260904153307 78 356 12.0 14.0 0.00 0.01 0.01 88 1019.6
20260904152803 78 282 3.0 5.0 0.00 0.01 0.01 89 1019.5
20260904152258 77 287 6.0 7.0 0.00 0.01 0.01 90 1019.5
20260904151753 77 276 3.0 3.0 0.00 0.01 0.01 90 1019.7
20260904151251 77 292 7.0 10.0 0.00 0.01 0.01 90 1019.7
20260904150748 77 303 4.0 6.0 0.00 0.01 0.01 90 1019.7
20260904150243 76 279 4.0 5.0 0.00 0.01 0.01 91 1019.7
20260904145741 76 326 5.0 6.0 0.00 0.01 0.01 91 1019.8
20260904145237 76 279 3.0 3.0 0.00 0.01 0.01 90 1019.6
20260904144732 76 283 3.0 3.0 0.00 0.01 0.01 91 1019.6
20260904144228 76 284 5.0 7.0 0.00 0.01 0.01 91 1019.5
20260904143723 75 284 2.0 2.0 0.00 0.01 0.01 93 1019.7
20260904143220 75 260 2.0 3.0 0.00 0.01 0.01 93 1019.8
20260904142716 75 295 3.0 5.0 0.00 0.01 0.01 92 1019.4
20260904142212 74 328 4.0 5.0 0.00 0.01 0.01 96 1019.6
20260904141711 71 281 2.0 3.0 0.00 0.01 0.01 99 1019.6
20260904141207 71 288 3.0 3.0 0.00 0.01 0.01 99 1019.6
20260904140702 70 297 4.0 6.0 0.00 0.01 0.01 99 1019.5
20260904140157 70 283 3.0 3.0 0.00 0.01 0.01 99 1019.6
20260904135656 69 251 0.0 0.0 0.00 0.01 0.01 99 1019.5
20260904135152 69 251 0.0 0.0 0.00 0.01 0.01 99 1019.4
20260904134648 69 252 0.0 0.0 0.00 0.01 0.01 99 1019.4
20260904134147 69 251 0.0 0.0 0.00 0.01 0.01 99 1019.5
20260904133642 69 253 0.0 0.0 0.00 0.01 0.01 99 1019.5
20260904133138 69 243 0.0 0.0 0.00 0.01 0.01 99 1019.5
20260904132637 68 243 0.0 0.0 0.00 0.01 0.01 99 1019.8
20260904132132 69 248 0.0 0.0 0.00 0.01 0.01 99 1019.7
20260904131631 68 230 0.0 0.0 0.00 0.01 0.01 99 1019.7
20260904131128 68 245 0.0 0.0 0.00 0.01 0.01 99 1019.2
20260904130627 68 246 0.0 0.0 0.00 0.01 0.01 99 1019.6
20260904130122 68 249 0.0 0.0 0.00 0.01 0.01 99 1019.6
20260904125618 68 241 0.0 0.0 0.00 0.01 0.01 99 1019.7
20260904125113 67 243 0.0 0.0 0.00 0.01 0.01 99 1019.8
20260904124608 67 239 0.0 0.0 0.00 0.01 0.01 99 1019.7
20260904124104 67 243 0.0 0.0 0.00 0.01 0.01 99 1019.6
20260904123604 67 245 0.0 0.0 0.00 0.01 0.01 99 1019.6
20260904123100 67 247 0.0 0.0 0.00 0.01 0.01 99 1019.7
20260904122600 67 249 0.0 0.0 0.00 0.01 0.01 99 1019.5
20260904122055 66 248 0.0 0.0 0.00 0.01 0.01 99 1019.6
20260904121550 66 249 0.0 0.0 0.00 0.01 0.01 99 1019.5
20260904121046 66 247 0.0 0.0 0.00 0.01 0.01 99 1019.5
20260904120542 66 242 0.0 0.0 0.00 0.01 0.01 99 1019.6
20260904120037 66 246 0.0 0.0 0.00 0.01 0.01 99 1019.7
20260904115532 66 245 0.0 0.0 0.00 0.01 0.01 99 1019.5
20260904115027 66 241 0.0 0.0 0.00 0.01 0.01 99 1019.8
20260904114522 65 237 0.0 0.0 0.00 0.01 0.01 99 1019.6
20260904114021 65 236 0.0 0.0 0.00 0.01 0.01 99 1019.6
20260904113516 65 244 0.0 0.0 0.00 0.01 0.01 99 1019.8
20260904113016 65 243 0.0 0.0 0.00 0.01 0.01 99 1019.6
20260904112511 65 246 0.0 0.0 0.00 0.01 0.01 99 1019.5
20260904112007 65 244 0.0 0.0 0.00 0.01 0.01 99 1019.7
20260904111503 65 245 0.0 0.0 0.00 0.01 0.01 99 1019.5
20260904110958 65 245 0.0 0.0 0.00 0.01 0.01 99 1019.5
20260904110457 65 245 0.0 0.0 0.00 0.01 0.01 99 1019.4
20260904105953 65 248 0.0 0.0 0.00 0.01 0.01 99 1019.4
20260904105452 65 247 0.0 0.0 0.00 0.01 0.01 99 1019.4
20260904104948 65 245 0.0 0.0 0.00 0.01 0.01 99 1019.6
20260904104443 65 245 0.0 0.0 0.00 0.01 0.01 99 1019.5
20260904103939 65 247 0.0 0.0 0.00 0.01 0.01 99 1019.5
20260904103434 65 248 0.0 0.0 0.00 0.01 0.01 99 1019.5
20260904102930 65 244 0.0 0.0 0.00 0.01 0.01 99 1019.4
20260904102426 65 241 0.0 0.0 0.00 0.01 0.01 99 1019.2
20260904101921 65 236 0.0 0.0 0.00 0.01 0.01 99 1019.6
20260904101417 65 241 0.0 0.0 0.00 0.01 0.01 99 1019.5
20260904100914 65 244 0.0 0.0 0.00 0.01 0.01 99 1019.4
20260904100409 65 221 0.0 0.0 0.00 0.01 0.01 99 1019.0
20260904095909 65 241 0.0 0.0 0.00 0.01 0.01 99 1019.1
20260904095403 65 233 0.0 0.0 0.00 0.01 0.01 99 1019.6
20260904094858 65 245 0.0 0.0 0.00 0.01 0.01 99 1019.4
20260904094354 65 244 0.0 0.0 0.00 0.01 0.01 99 1019.0
20260904093850 65 222 0.0 0.0 0.00 0.01 0.01 99 1019.1
20260904093349 65 227 0.0 0.0 0.00 0.01 0.01 99 1019.1
20260904092845 65 247 0.0 0.0 0.00 0.01 0.01 99 1019.1
20260904092342 65 266 0.0 0.0 0.00 0.01 0.01 99 1019.2
20260904091837 65 246 0.0 0.0 0.00 0.01 0.01 99 1019.1
20260904091333 65 244 0.0 0.0 0.00 0.01 0.01 99 1018.9
20260904090827 65 232 0.0 0.0 0.00 0.01 0.01 99 1019.0
20260904090324 65 234 0.0 0.0 0.00 0.01 0.01 99 1019.0
20260904085819 65 256 0.0 0.0 0.00 0.01 0.01 99 1019.2